Flag for Germany Weather past 2 weeks in Frankfurt an der Oder, Brandenburg, Germany

Now
60 °F

Passing clouds.


Feels Like: 60 °F
Forecast: 69 / 94 °F
Wind: 2 mph from Northeast

Location: Lindenberg

Current Time: Aug 30, 2015 at 2:14:47 AM

Latest Report: Aug 30, 2015 at 1:00 AM


Visibility: 19 mi

Pressure: 30.17 "Hg

Humidity: 77%

Dew point: 53 °F

Location of Frankfurt an der OderLocation

Historic Weather in Frankfurt an der Oder — Graph

°F

Frankfurt an der Oder temperature yesterday

Maximum temperature yesterday: 76 °F (at 6:00 PM)
Minimum temperature yesterday: 53 °F (at 7:00 AM)
Average temperature yesterday: 65 °F

Past Weeks' High & Low Weather Summary

 TemperatureHumidityPressure
High88 °F (Aug 15, 4:00 PM)98% (Aug 16, 4:00 AM)30.31 "Hg (Aug 16, 4:00 AM)
Low53 °F (Aug 29, 7:00 AM)24% (Aug 19, 6:00 PM)29.67 "Hg (Aug 15, 3:00 AM)
Average69 °F63%29.98 "Hg
* Reported Aug 15 1:00 AM — Aug 30 1:00 AM, Frankfurt an der Oder, Weather by CustomWeather, © 2015

Note: Actual official high and low records may vary slightly from our data, if they occured in-between our weather recording intervals... More about our weather records

Advertising

Frankfurt an der Oder weather history for previous 24 hours

 ConditionsComfort  
Time TempWeatherWind HumidityBarometerVisibility
1:00 AM
Sun, Aug 30
60 °FPassing clouds.2 mph77%30.17 "Hg19 mi
10:00 PM
Sat, Aug 29
66 °FPassing clouds.2 mph60%30.19 "Hg25 mi
9:00 PM67 °FPassing clouds.2 mph58%30.18 "Hg25 mi
8:00 PM69 °FPassing clouds.1 mph57%30.18 "Hg31 mi
7:00 PM72 °FScattered clouds.1 mph47%30.18 "Hg28 mi
6:00 PM76 °FScattered clouds.1 mph42%30.20 "Hg28 mi
5:00 PM75 °FScattered clouds.2 mph43%30.21 "Hg28 mi
4:00 PM75 °FPassing clouds.2 mph42%30.22 "Hg25 mi
3:00 PM73 °FScattered clouds.1 mph44%30.24 "Hg22 mi
2:00 PM72 °FPassing clouds.1 mph47%30.25 "Hg19 mi
1:00 PM70 °FScattered clouds.1 mph52%30.27 "Hg19 mi
12:00 PM70 °FScattered clouds.2 mph59%30.27 "Hg12 mi
10:00 AM66 °FPassing clouds.1 mph70%30.27 "Hg12 mi
9:00 AM63 °FSunny.1 mph81%30.26 "Hg12 mi
8:00 AM56 °FFog.1 mph97%30.25 "Hg6 mi
7:00 AM53 °FFog.1 mph97%30.25 "Hg1 mi
6:00 AM54 °FFog.2 mph97%30.23 "Hg5 mi
4:00 AM55 °FPassing clouds.2 mph91%30.21 "Hg16 mi
3:00 AM56 °FPassing clouds.2 mph90%30.19 "Hg16 mi
2:00 AM56 °FClear.1 mph89%30.19 "Hg19 mi
Weather by CustomWeather, © 2015

See weather overviewHow to use our weather pages